Wappingers Falls, NY

6:44 PM EST on January 22, 2017 (GMT -0500)
Dutchess County

Weather History for KPOU - December, 2014

Change the Weather History Date:

Saturday, December 6, 2014

  Actual Average Record
Temperature  
Mean Temperature 38 °F 34 °F  
Max Temperature 42 °F 44 °F 72 °F (2001)
Min Temperature 34 °F 25 °F 6 °F (1976)
Degree Days  
Heating Degree Days 27 30  
Month to date heating degree days 168 177  
Since 1 July heating degree days 1319 1455  
Cooling Degree Days 0 0  
Month to date cooling degree days 0 0  
Year to date cooling degree days 696 672  
Moisture  
Dew Point 34 °F    
Average Humidity 90    
Maximum Humidity 100    
Minimum Humidity 79    
Precipitation  
Precipitation 0.68 in 0.12 in 1.03 in (1972)
Month to date precipitation 1.14 0.74  
Year to date precipitation 32.28 43.74  
Sea Level Pressure  
Sea Level Pressure 30.24 in    
Wind  
Wind Speed 4 mph (North)    
Max Wind Speed 21 mph    
Max Gust Speed 28 mph    
Visibility 3 miles    
Events Rain    
T = Trace of Precipitation, MM = Missing Value Source: NWS Daily Summary

Daily Weather History Graph

Daily Weather History Graph

Search for Another Location

Airport or City:

Trip Planner

Search our weather history database for the weather conditions in past years. The results will help you decide how hot, cold, wet, or windy it might be!

Date:

Astronomy

Dec. 06, 2014 Rise Set
Actual Time 7:07 AM EST 4:25 PM EST
Civil Twilight 6:36 AM EST 4:56 PM EST
Nautical Twilight 6:01 AM EST 5:31 PM EST
Astronomical Twilight 5:28 AM EST 6:04 PM EST
Moon 5:00 PM EST (12/6) 6:55 AM EST (12/6)
Length of Visible Light 10h 19m
Length of Day
9h 17m
Full, 100% of the Moon is Illuminated
Dec 6
Full
Dec 14
Last Quarter
Dec 21
New
Dec 28
First Quarter
Jan 4
Full

Hourly Weather History & Observations

Time (EST) Temp. Windchill Dew Point Humidity Pressure Visibility Wind Dir Wind Speed Gust Speed Precip Events Conditions
12:01 AM 35.1 °F - 33.1 °F 92% 30.36 in 3.0 mi Calm Calm - 0.01 in Rain Light Rain
12:12 AM 34.0 °F - 32.0 °F 92% 30.36 in 2.5 mi Calm Calm - 0.01 in Rain Light Rain
12:17 AM 34.0 °F - 32.0 °F 92% 30.36 in 3.0 mi Calm Calm - 0.01 in Rain Light Rain
12:36 AM 34.0 °F - 32.0 °F 92% 30.35 in 2.0 mi Calm Calm - 0.02 in Rain Light Rain
12:40 AM 34.0 °F - 32.0 °F 92% 30.35 in 1.8 mi Calm Calm - 0.02 in Rain Light Rain
12:53 AM 34.0 °F - 33.1 °F 96% 30.35 in 2.0 mi Calm Calm - 0.03 in Rain Light Rain
1:01 AM 34.0 °F - 32.0 °F 92% 30.34 in 1.5 mi Calm Calm - 0.00 in Rain Light Rain
1:30 AM 34.0 °F - 32.0 °F 92% 30.34 in 2.0 mi Calm Calm - 0.01 in Rain Light Rain
1:53 AM 34.0 °F - 33.1 °F 96% 30.33 in 2.0 mi Calm Calm - 0.02 in   Overcast
2:07 AM 35.1 °F - 33.1 °F 92% 30.33 in 3.0 mi Calm Calm - N/A   Overcast
2:15 AM 35.1 °F - 33.1 °F 92% 30.33 in 2.5 mi Calm Calm - N/A   Overcast
2:53 AM 35.1 °F - 33.1 °F 92% 30.31 in 2.0 mi Calm Calm - N/A   Overcast
3:30 AM 35.1 °F - 32.0 °F 89% 30.29 in 2.5 mi Calm Calm - 0.00 in   Overcast
3:53 AM 35.1 °F - 33.1 °F 92% 30.28 in 2.5 mi Calm Calm - 0.00 in   Overcast
4:23 AM 35.1 °F 32.2 °F 33.1 °F 92% 30.27 in 3.0 mi SE 3.5 mph - N/A   Overcast
4:39 AM 35.1 °F - 33.1 °F 92% 30.27 in 2.5 mi Calm Calm - 0.00 in   Overcast
4:51 AM 35.6 °F - 33.8 °F 93% 30.27 in 3.0 mi Calm Calm - 0.00 in Rain Light Rain
4:53 AM 35.1 °F - 33.1 °F 92% 30.26 in 3.0 mi Calm Calm - 0.00 in Rain Light Rain
5:08 AM 35.1 °F - 33.1 °F 92% 30.27 in 2.5 mi Calm Calm - 0.00 in Rain Light Rain
5:15 AM 35.1 °F - 33.1 °F 92% 30.26 in 3.0 mi Calm Calm - 0.01 in Rain Light Rain
5:19 AM 36.0 °F - 33.1 °F 89% 30.26 in 3.0 mi Calm Calm - 0.01 in Rain Light Rain
5:30 AM 35.1 °F - 33.1 °F 92% 30.26 in 2.5 mi Calm Calm - 0.01 in Rain Light Rain
5:40 AM 35.1 °F - 33.1 °F 92% 30.26 in 2.5 mi Calm Calm - 0.02 in Rain Light Rain
5:53 AM 35.1 °F - 33.1 °F 92% 30.25 in 3.0 mi Calm Calm - 0.02 in Rain Light Rain
6:29 AM 36.0 °F - 33.1 °F 89% 30.25 in 3.0 mi Calm Calm - 0.00 in Rain Light Rain
6:53 AM 36.0 °F - 33.1 °F 89% 30.23 in 2.5 mi Calm Calm - 0.00 in   Overcast
7:02 AM 36.0 °F - 33.1 °F 89% 30.24 in 2.5 mi Calm Calm - N/A   Overcast
7:09 AM 36.0 °F - 33.1 °F 89% 30.24 in 1.0 mi Calm Calm - N/A   Overcast
7:17 AM 36.0 °F - 34.0 °F 93% 30.23 in 1.0 mi Calm Calm - 0.01 in Rain Light Rain
7:32 AM 36.0 °F - 34.0 °F 93% 30.23 in 1.0 mi Calm Calm - 0.01 in Rain Light Rain
7:44 AM 36.0 °F - 33.1 °F 89% 30.23 in 1.0 mi Calm Calm - 0.02 in Rain Light Rain
7:53 AM 36.0 °F - 34.0 °F 93% 30.22 in 1.0 mi Calm Calm - 0.02 in Rain Light Rain
8:17 AM 36.0 °F - 34.0 °F 93% 30.23 in 1.2 mi Calm Calm - 0.03 in Rain Light Rain
8:31 AM 36.0 °F - 34.0 °F 93% 30.23 in 1.5 mi Calm Calm - 0.04 in Rain Light Rain
8:45 AM 36.0 °F - 34.0 °F 93% 30.23 in 2.5 mi Calm Calm - 0.04 in Rain Light Rain
8:53 AM 37.0 °F - 34.0 °F 89% 30.22 in 1.8 mi Calm Calm - 0.05 in Rain Light Rain
9:09 AM 37.0 °F - 35.1 °F 93% 30.23 in 1.8 mi Calm Calm - 0.01 in Rain Light Rain
9:18 AM 37.0 °F - 34.0 °F 89% 30.23 in 2.0 mi Calm Calm - 0.02 in Rain Light Rain
9:35 AM 37.0 °F - 34.0 °F 89% 30.24 in 3.0 mi Calm Calm - 0.02 in Rain Light Rain
9:42 AM 37.0 °F - 35.1 °F 93% 30.24 in 3.0 mi Calm Calm - 0.03 in Rain Light Rain
9:53 AM 37.9 °F - 35.1 °F 89% 30.23 in 2.5 mi Calm Calm - 0.04 in Rain Light Rain
10:53 AM 37.9 °F - 36.0 °F 93% 30.22 in 2.0 mi Calm Calm - 0.04 in Rain Light Rain
11:00 AM 37.9 °F - 36.0 °F 93% 30.21 in 2.0 mi Calm Calm - 0.00 in Rain Light Rain
11:38 AM 39.0 °F - 36.0 °F 89% 30.20 in 2.0 mi Calm Calm - 0.00 in   Overcast
11:53 AM 39.0 °F - 36.0 °F 89% 30.18 in 2.0 mi Calm Calm - 0.00 in Rain Light Rain
12:35 PM 41.0 °F 38.0 °F 37.9 °F 89% 30.16 in 2.0 mi South 4.6 mph - 0.00 in   Overcast
12:53 PM 41.0 °F - 39.0 °F 93% 30.15 in 2.0 mi Calm Calm - 0.00 in Rain Light Rain
1:24 PM 42.1 °F - 39.0 °F 89% 30.15 in 2.0 mi Calm Calm - 0.01 in Rain Light Rain
1:53 PM 42.1 °F 40.2 °F 39.0 °F 89% 30.13 in 2.0 mi NNW 3.5 mph - 0.04 in Rain Light Rain
2:53 PM 42.1 °F 38.4 °F 39.0 °F 89% 30.12 in 2.0 mi NNE 5.8 mph - 0.09 in Rain Rain
3:53 PM 42.1 °F 39.2 °F 39.0 °F 89% 30.13 in 2.5 mi NNW 4.6 mph - 0.07 in Rain Light Rain
4:00 PM 42.1 °F 39.2 °F 39.0 °F 89% 30.14 in 2.5 mi NNW 4.6 mph - 0.02 in Rain Rain
4:53 PM 39.9 °F 35.8 °F 37.9 °F 93% 30.15 in 2.5 mi NNW 5.8 mph - 0.10 in Rain Light Rain
5:53 PM 39.9 °F 35.1 °F 37.0 °F 89% 30.16 in 2.5 mi North 6.9 mph - 0.05 in Rain Light Rain
6:53 PM 39.9 °F 36.7 °F 37.0 °F 89% 30.16 in 2.5 mi North 4.6 mph - 0.03 in Rain Light Rain
7:53 PM 39.9 °F 34.5 °F 37.0 °F 89% 30.18 in 2.5 mi North 8.1 mph - 0.06 in Rain Light Rain
8:00 PM 39.9 °F 32.9 °F 36.0 °F 86% 30.19 in 9.0 mi North 11.5 mph - 0.00 in Rain Light Rain
8:53 PM 39.0 °F 31.8 °F 35.1 °F 86% 30.22 in 10.0 mi North 11.5 mph 21.9 mph 0.01 in Rain Light Rain
9:53 PM 39.0 °F 30.6 °F 34.0 °F 82% 30.24 in 10.0 mi North 15.0 mph 21.9 mph 0.02 in Rain Light Rain
10:30 PM 37.9 °F 29.6 °F 34.0 °F 86% 30.26 in 10.0 mi North 13.8 mph 23.0 mph 0.00 in Rain Light Rain
10:43 PM 37.9 °F 29.2 °F 34.0 °F 86% 30.26 in 10.0 mi NNE 15.0 mph 23.0 mph 0.00 in Rain Light Rain
10:53 PM 37.9 °F 29.2 °F 34.0 °F 86% 30.25 in 10.0 mi NNE 15.0 mph - 0.00 in Rain Light Rain
11:19 PM 39.0 °F 31.4 °F 34.0 °F 82% 30.26 in 10.0 mi NNE 12.7 mph - 0.00 in   Overcast
11:53 PM 37.9 °F 29.2 °F 34.0 °F 86% 30.26 in 10.0 mi NNE 15.0 mph 23.0 mph 0.00 in   Overcast